KD5NDU-1 Weather Reports


time (UTC)temp
F
wind
direction
speed
knots
gust
knots
rain 1hr
in
rain 24hr
in
rain mn
in
humidity
%
barometer
mb
20260505041524 57 268 7.0 10.4 0.00 0.00 0.00 85 1012.5
20260505041015 57 268 7.0 10.4 0.00 0.00 0.00 85 1012.6
20260505040515 58 268 7.0 10.4 0.00 0.00 0.00 85 1012.6
20260505040020 58 268 7.0 10.4 0.00 0.00 0.00 84 1012.5
20260505035512 58 268 7.0 10.4 0.00 0.00 0.00 84 1012.4
20260505035008 58 268 7.0 10.4 0.00 0.00 0.00 84 1012.6
20260505034507 58 268 7.0 10.4 0.00 0.00 0.00 84 1012.6
20260505034004 58 268 7.0 10.4 0.00 0.00 0.00 83 1012.5
20260505033507 59 268 7.0 10.4 0.00 0.00 0.00 83 1012.4
20260505033012 59 268 7.0 10.4 0.00 0.00 0.00 83 1012.4
20260505032505 59 268 7.0 10.4 0.00 0.00 0.00 82 1012.4
20260505032006 59 268 7.0 10.4 0.00 0.00 0.00 82 1012.4
20260505031510 59 268 7.0 10.4 0.00 0.00 0.00 83 1012.5
20260505031006 59 268 7.0 10.4 0.00 0.00 0.00 82 1012.4
20260505030507 60 268 7.0 10.4 0.00 0.00 0.00 82 1012.3
20260505030012 60 268 7.0 10.4 0.00 0.00 0.00 82 1012.3
20260505025507 60 268 7.0 10.4 0.00 0.00 0.00 81 1012.3
20260505025004 60 268 7.0 10.4 0.00 0.00 0.00 81 1012.3
20260505024510 61 268 7.0 10.4 0.00 0.00 0.00 80 1012.3
20260505024008 61 268 7.0 10.4 0.00 0.00 0.00 80 1012.3
20260505023506 61 268 7.0 10.4 0.00 0.00 0.00 80 1012.4
20260505023014 61 268 7.0 10.4 0.00 0.00 0.00 79 1012.2
20260505022507 61 268 7.0 10.4 0.00 0.00 0.00 79 1012.3
20260505022004 62 268 7.0 10.4 0.00 0.00 0.00 79 1012.2
20260505021514 62 268 7.0 10.4 0.00 0.00 0.00 77 1012.1
20260505021005 62 268 7.0 10.4 0.00 0.00 0.00 78 1011.9
20260505020506 63 268 7.0 10.4 0.00 0.00 0.00 77 1011.9
20260505020015 63 268 7.0 10.4 0.00 0.00 0.00 76 1011.8
20260505015505 63 268 7.0 10.4 0.00 0.00 0.00 77 1011.7
20260505015007 64 268 7.0 10.4 0.00 0.00 0.00 76 1011.7
20260505014512 64 268 7.0 10.4 0.00 0.00 0.00 76 1011.6
20260505014006 64 268 7.0 10.4 0.00 0.00 0.00 75 1011.6
20260505013506 65 268 7.0 10.4 0.00 0.00 0.00 75 1011.7
20260505013010 65 268 7.0 10.4 0.00 0.00 0.00 75 1011.7
20260505012506 65 268 7.0 10.4 0.00 0.00 0.00 73 1011.7
20260505012006 66 268 7.0 10.4 0.00 0.00 0.00 71 1011.7
20260505011515 66 268 7.0 10.4 0.00 0.00 0.00 71 1011.6
20260505011008 67 268 7.0 10.4 0.00 0.00 0.00 70 1011.6
20260505010505 67 268 7.0 10.4 0.00 0.00 0.00 68 1011.7
20260505010019 68 268 7.0 10.4 0.00 0.00 0.00 69 1011.7
20260505005507 68 268 7.0 10.4 0.00 0.00 0.00 67 1011.7
20260505005004 69 268 7.0 10.4 0.00 0.00 0.00 65 1011.7
20260505004512 70 268 7.0 10.4 0.00 0.00 0.00 67 1011.7
20260505004006 70 268 7.0 10.4 0.00 0.00 0.00 63 1011.6
20260505003507 71 268 7.0 10.4 0.00 0.00 0.00 64 1011.6
20260505003013 71 268 7.0 10.4 0.00 0.00 0.00 60 1011.6
20260505002506 72 268 7.0 10.4 0.00 0.00 0.00 61 1011.6
20260505002006 72 268 7.0 10.4 0.00 0.00 0.00 58 1011.6
20260505001516 73 268 7.0 10.4 0.00 0.00 0.00 58 1011.5
20260505001005 73 268 7.0 10.4 0.00 0.00 0.00 56 1011.6
20260505000509 73 268 7.0 10.4 0.00 0.00 0.00 55 1011.7
20260505000025 74 268 7.0 10.4 0.00 0.00 0.00 55 1011.6
20260504235506 74 268 7.0 10.4 0.00 0.00 0.00 53 1011.6
20260504235007 74 268 7.0 10.4 0.00 0.00 0.00 52 1011.7
20260504234514 75 268 7.0 10.4 0.00 0.00 0.00 51 1011.7
20260504234010 75 268 7.0 10.4 0.00 0.00 0.00 52 1011.8
20260504233506 76 268 7.0 10.4 0.00 0.00 0.00 53 1011.7
20260504233017 76 268 7.0 10.4 0.00 0.00 0.00 51 1011.7
20260504232508 76 268 7.0 10.4 0.00 0.00 0.00 47 1011.8
20260504232008 76 268 7.0 10.4 0.00 0.00 0.00 51 1011.8
20260504231518 76 268 7.0 10.4 0.00 0.00 0.00 47 1011.8
20260504231006 77 268 7.0 10.4 0.00 0.00 0.00 45 1011.9
20260504230505 77 268 7.0 10.4 0.00 0.00 0.00 46 1011.8
20260504230025 77 268 7.0 10.4 0.00 0.00 0.00 46 1011.9
20260504225507 77 268 7.0 10.4 0.00 0.00 0.00 46 1011.9
20260504225006 77 268 7.0 10.4 0.00 0.00 0.00 49 1012.0
20260504224522 77 268 7.0 10.4 0.00 0.00 0.00 48 1011.9
20260504224006 77 268 7.0 10.4 0.00 0.00 0.00 44 1012.1
20260504223506 77 268 7.0 10.4 0.00 0.00 0.00 44 1012.0
20260504223018 78 268 7.0 10.4 0.00 0.00 0.00 44 1012.0
20260504222507 78 268 7.0 10.4 0.00 0.00 0.00 44 1011.9
20260504222007 78 268 7.0 10.4 0.00 0.00 0.00 45 1012.0
20260504221536 78 268 7.0 10.4 0.00 0.00 0.00 44 1012.1
20260504221012 78 268 7.0 10.4 0.00 0.00 0.00 45 1012.2
20260504220508 79 268 7.0 10.4 0.00 0.00 0.00 44 1012.1
20260504220015 78 268 7.0 10.4 0.00 0.00 0.00 44 1012.0
20260504215507 78 268 7.0 10.4 0.00 0.00 0.00 46 1012.2
20260504215011 78 268 7.0 10.4 0.00 0.00 0.00 44 1012.2
20260504214522 78 268 7.0 10.4 0.00 0.00 0.00 44 1012.2
20260504214007 78 268 7.0 10.4 0.00 0.00 0.00 43 1012.2
20260504213510 79 268 7.0 10.4 0.00 0.00 0.00 42 1012.2
20260504213020 78 268 7.0 10.4 0.00 0.00 0.00 44 1012.2
20260504212508 78 268 7.0 10.4 0.00 0.00 0.00 42 1012.2
20260504212009 79 268 7.0 10.4 0.00 0.00 0.00 43 1012.4
20260504211520 79 268 7.0 10.4 0.00 0.00 0.00 44 1012.5
20260504211007 79 268 7.0 10.4 0.00 0.00 0.00 45 1012.6
20260504210508 79 268 7.0 10.4 0.00 0.00 0.00 43 1012.7
20260504210006 78 268 7.0 10.4 0.00 0.00 0.00 47 1012.8
20260504205508 78 268 7.0 10.4 0.00 0.00 0.00 45 1012.8
20260504205008 78 268 7.0 10.4 0.00 0.00 0.00 42 1013.0
20260504204504 78 268 7.0 10.4 0.00 0.00 0.00 47 1013.2
20260504204008 78 268 7.0 10.4 0.00 0.00 0.00 45 1013.3
20260504203503 78 268 7.0 10.4 0.00 0.00 0.00 45 1013.3
20260504203020 79 268 7.0 10.4 0.00 0.00 0.00 46 1013.4
20260504202508 79 268 7.0 10.4 0.00 0.00 0.00 52 1013.4
20260504202004 78 268 7.0 10.4 0.00 0.00 0.00 44 1013.5
20260504201520 78 268 7.0 10.4 0.00 0.00 0.00 44 1013.7
20260504201005 79 268 7.0 10.4 0.00 0.00 0.00 44 1013.7
20260504200511 79 268 7.0 10.4 0.00 0.00 0.00 43 1013.7
20260504200014 80 268 7.0 10.4 0.00 0.00 0.00 47 1013.8
20260504195504 79 268 7.0 10.4 0.00 0.00 0.00 47 1013.8
20260504195007 79 268 7.0 10.4 0.00 0.00 0.00 44 1013.8
20260504194510 79 268 7.0 10.4 0.00 0.00 0.00 47 1013.9
20260504194003 79 268 7.0 10.4 0.00 0.00 0.00 41 1013.9
20260504193507 78 268 7.0 10.4 0.00 0.00 0.00 45 1013.9
20260504193008 78 268 7.0 10.4 0.00 0.00 0.00 46 1014.0
20260504192508 78 268 7.0 10.4 0.00 0.00 0.00 43 1014.1
20260504192007 79 268 7.0 10.4 0.00 0.00 0.00 47 1014.1
20260504191511 79 268 7.0 10.4 0.00 0.00 0.00 48 1014.2
20260504191008 78 268 7.0 10.4 0.00 0.00 0.00 44 1014.1
20260504190506 78 268 7.0 10.4 0.00 0.00 0.00 44 1014.2
20260504190005 78 268 7.0 10.4 0.00 0.00 0.00 46 1014.3
20260504185507 78 268 7.0 10.4 0.00 0.00 0.00 47 1014.4
20260504185005 78 268 7.0 10.4 0.00 0.00 0.00 44 1014.4
20260504184522 78 268 7.0 10.4 0.00 0.00 0.00 44 1014.5
20260504184006 78 268 7.0 10.4 0.00 0.00 0.00 41 1014.5
20260504183504 78 268 7.0 10.4 0.00 0.00 0.00 43 1014.7
20260504183022 78 268 7.0 10.4 0.00 0.00 0.00 43 1014.7
20260504182508 78 268 7.0 10.4 0.00 0.00 0.00 44 1014.7
20260504182015 78 220 5.2 12.2 0.00 0.00 0.00 49 1014.7
20260504181518 78 167 4.3 12.2 0.00 0.00 0.00 43 1014.8
20260504181007 78 208 7.0 12.2 0.00 0.00 0.00 43 1014.9
20260504180510 78 239 6.1 9.6 0.00 0.00 0.00 43 1014.9
20260504180019 77 63 0.0 0.0 0.00 0.00 0.00 45 1015.0
20260504175504 77 63 0.0 0.0 0.00 0.00 0.00 48 1015.0
20260504175008 77 63 0.0 0.0 0.00 0.00 0.00 50 1015.0
20260504174512 77 63 0.0 0.0 0.00 0.00 0.00 51 1015.1
20260504174008 77 63 0.0 0.0 0.00 0.00 0.00 50 1015.1
20260504173509 77 63 0.0 0.0 0.00 0.00 0.00 50 1015.1
20260504173010 77 63 0.0 0.0 0.00 0.00 0.00 49 1015.3
20260504172510 76 63 0.0 0.0 0.00 0.00 0.00 53 1015.3
20260504172006 77 63 0.0 0.0 0.00 0.00 0.00 54 1015.3
20260504171532 77 63 0.0 0.0 0.00 0.00 0.00 49 1015.3
20260504171010 77 63 0.0 0.0 0.00 0.00 0.00 51 1015.3
20260504170504 77 63 0.0 0.0 0.00 0.00 0.00 53 1015.4
20260504151007 71 63 0.0 0.0 0.00 0.00 0.00 65 1016.4
20260504150507 71 63 0.0 0.0 0.00 0.00 0.00 64 1016.5
20260504141017 67 63 0.0 0.0 0.00 0.00 0.00 71 1016.6
20260504140506 66 63 0.0 0.0 0.00 0.00 0.00 70 1016.6
20260504130511 59 63 0.0 0.0 0.00 0.00 0.00 83 1016.5
20260504110506 47 63 0.0 0.0 0.00 0.00 0.00 89 1015.8
20260504100505 47 63 0.0 0.0 0.00 0.00 0.00 89 1016.0
20260504082007 49 63 0.0 0.0 0.00 0.00 0.00 88 1016.2
20260504081511 49 63 0.0 0.0 0.00 0.00 0.00 88 1016.2
20260504081018 49 63 0.0 0.0 0.00 0.00 0.00 88 1016.3
20260504080508 49 63 0.0 0.0 0.00 0.00 0.00 88 1016.3
20260504050503 51 63 0.0 0.0 0.00 0.00 0.00 87 1017.8
20260504050004 51 63 0.0 0.0 0.00 0.00 0.00 87 1017.7
20260504045507 51 63 0.0 0.0 0.00 0.00 0.00 87 1017.6
20260504045006 51 63 0.0 0.0 0.00 0.00 0.00 86 1017.6
20260504044504 51 63 0.0 0.0 0.00 0.00 0.00 86 1017.6
20260504044007 51 63 0.0 0.0 0.00 0.00 0.00 86 1017.6
20260504043504 51 63 0.0 0.0 0.00 0.00 0.00 86 1017.6
20260504043017 51 63 0.0 0.0 0.00 0.00 0.00 86 1017.6